User: anonymous   Login
Location: Oshawa
(43.9000°N, 78.8670°W)
Time: 09:06:30
(UTC-04:00)
Language:

Cosmos 839 Rocket - Orbit

View from above orbital plane
View from above orbital plane
View from above satellite
View from above satellite

Ground track
Ground track

The orbit data is extracted from the following two-line orbital elements,

1  9013U 76067B   16241.87388966 -.00000024 +00000-0 +10241-3 0  9996
2  9013 065.8632 213.8674 0716282 188.3003 182.0868 12.35327028810303
Epoch (UTC): 28 August 2016 20:58:24
Eccentricity: 0.0716282
inclination: 65.8632°
perigee height: 960 km
apogee height: 2092 km
right ascension of ascending node: 213.8674°
argument of perigee: 188.3003°
revolutions per day: 12.35327028
mean anomaly at epoch: 182.0868°
orbit number at epoch: 81030

The dashed part of the orbit path shows where the satellite is in the earth's shadow,  

DLR